Back to catalog

KL-BETA B

AliveSciencePO
NORAD 49060·PAYLOAD·🇩🇪 Germany

Launched Aug 4, 2021 from Taiyuan Satellite Launch Center

Loading…

Next Passes (next 24 hours)

TLE

FreshSource: Space-Track

Epoch: Sep 14, 2026, 14:54 UTC

1 49060U 21070B   26257.62145941 -.00000088  00000-0 -75948-4 0  9998
2 49060  89.0111 208.8260 0003948 174.2984 185.8237 13.94731160260430

Track KL-BETA B in real time with AllMySat

Download on the App Store